Weather History for Wautoma, WI

Change the Weather History Date:

Tuesday, December 4, 2012

  Actual Average (KPCZ) Record (KPCZ)
Temperature  
Mean Temperature 36 °F -  
Max Temperature 46 °F 32 °F 58 °F (1961)
Min Temperature 23 °F 15 °F -3 °F (1985)
Degree Days  
Heating Degree Days 30    
Moisture  
Dew Point 25 °F    
Average Humidity 60    
Maximum Humidity 82    
Minimum Humidity 44    
Precipitation  
Precipitation 0.00 in - - ()
Sea Level Pressure  
Sea Level Pressure 30.09 in    
Wind  
Wind Speed 11 mph (WNW)    
Max Wind Speed 24 mph    
Max Gust Speed 30 mph    
Visibility 10 miles    
Events      
Averages and records for this station are not official NWS values.
T = Trace of Precipitation, MM = Missing Value Source: NWS Daily Summary

Daily Weather History Graph

Daily Weather History Graph

Search for Another Location

Airport:

Trip Planner

Search our weather history database for the weather conditions in past years. The results will help you decide how hot, cold, wet, or windy it might be!

Date:

Astronomy

Dec. 04, 2012 Rise Set
Actual Time 7:15 AM CST 4:19 PM CST
Civil Twilight 6:43 AM CST 4:52 PM CST
Nautical Twilight 6:06 AM CST 5:28 PM CST
Astronomical Twilight 5:32 AM CST 6:03 PM CST
Moon 10:14 PM CST (12/4) 11:02 AM CST (12/4)
Length of Visible Light 10h 08m
Length of Day
9h 03m
Waning Gibbous, 69% of the Moon is Illuminated
Dec 4
Waning Gibbous
Dec 6
Last Quarter
Dec 13
New
Dec 19
First Quarter
Dec 28
Full

Hourly Weather History & Observations

Time (CST) Temp. Windchill Dew Point Humidity Pressure Visibility Wind Dir Wind Speed Gust Speed Precip Events Conditions
12:56 AM 41.9 °F 36.3 °F 36.9 °F 82% 29.91 in 10.0 mi WNW 9.2 mph - N/A   Clear
1:56 AM 41.9 °F 36.9 °F 34.9 °F 76% 29.92 in 10.0 mi West 8.1 mph - N/A   Clear
2:56 AM 41.0 °F 35.8 °F 34.0 °F 76% 29.93 in 10.0 mi West 8.1 mph - N/A   Clear
3:56 AM 41.9 °F 36.9 °F 32.0 °F 68% 29.92 in 10.0 mi West 8.1 mph - N/A   Clear
4:56 AM 41.0 °F 36.4 °F 31.1 °F 68% 29.95 in 10.0 mi West 6.9 mph - N/A   Clear
5:56 AM 41.0 °F 35.2 °F 30.0 °F 65% 29.98 in 10.0 mi West 9.2 mph - N/A   Clear
6:56 AM 39.9 °F 33.9 °F 30.0 °F 68% 30.00 in 10.0 mi West 9.2 mph - N/A   Clear
7:56 AM 38.8 °F 32.1 °F 29.1 °F 68% 30.02 in 10.0 mi West 10.4 mph - N/A   Clear
8:56 AM 41.9 °F 34.3 °F 30.0 °F 63% 30.03 in 10.0 mi West 15.0 mph 19.6 mph N/A   Clear
9:56 AM 43.9 °F 36.2 °F 30.0 °F 58% 30.04 in 10.0 mi West 17.3 mph - N/A   Clear
10:56 AM 45.9 °F 37.6 °F 29.1 °F 52% 30.03 in 10.0 mi West 23.0 mph 27.6 mph N/A   Clear
11:56 AM 46.9 °F - 30.0 °F 52% 30.02 in 10.0 mi West 24.2 mph 29.9 mph N/A   Clear
12:56 PM 46.9 °F - 29.1 °F 50% 30.03 in 10.0 mi West 17.3 mph - N/A   Clear
1:56 PM 46.9 °F - 27.1 °F 46% 30.04 in 10.0 mi WNW 17.3 mph - N/A   Clear
2:56 PM 45.0 °F 36.2 °F 24.1 °F 44% 30.07 in 10.0 mi WNW 24.2 mph 27.6 mph N/A   Clear
3:56 PM 39.9 °F 30.5 °F 21.0 °F 47% 30.12 in 10.0 mi WNW 19.6 mph 27.6 mph N/A   Clear
4:56 PM 36.0 °F 28.0 °F 20.1 °F 53% 30.16 in 10.0 mi NW 11.5 mph 21.9 mph N/A   Clear
5:56 PM 32.9 °F 24.7 °F 20.1 °F 59% 30.20 in 10.0 mi NW 10.4 mph - N/A   Clear
6:56 PM 31.1 °F 23.7 °F 18.1 °F 59% 30.24 in 10.0 mi NW 8.1 mph - N/A   Clear
7:56 PM 29.1 °F 22.1 °F 17.1 °F 61% 30.26 in 10.0 mi NW 6.9 mph - N/A   Clear
8:56 PM 27.1 °F 18.9 °F 15.1 °F 60% 30.29 in 10.0 mi NW 8.1 mph - N/A   Clear
9:56 PM 26.1 °F 17.6 °F 13.1 °F 58% 30.31 in 10.0 mi NNW 8.1 mph - N/A   Clear
10:56 PM 25.2 °F 18.3 °F 12.0 °F 58% 30.34 in 10.0 mi NW 5.8 mph - N/A   Clear
11:56 PM 23.0 °F 18.4 °F 11.1 °F 60% 30.36 in 10.0 mi NNW 3.5 mph - N/A   Clear